Fort Leonard Wood, MO

7:37 PM CST on December 14, 2017 (GMT -0600)
Waynesville Regional At Forney Field

Weather History for KTBN - September, 2014

Change the Weather History Date:

Saturday, September 13, 2014

  Actual Average Record
Temperature  
Mean Temperature 53 °F -  
Max Temperature 63 °F 78 °F 95 °F (2011)
Min Temperature 43 °F 59 °F 43 °F (2014)
Degree Days  
Heating Degree Days 12    
Growing Degree Days 3 (Base 50)    
Moisture  
Dew Point 45 °F    
Average Humidity 84    
Maximum Humidity 100    
Minimum Humidity 49    
Precipitation  
Precipitation 0.00 in - - ()
Sea Level Pressure  
Sea Level Pressure 30.34 in    
Wind  
Wind Speed 9 mph (NNE)    
Max Wind Speed 14 mph    
Max Gust Speed -    
Visibility 10 miles    
Events      
Averages and records for this station are not official NWS values.
T = Trace of Precipitation, MM = Missing Value Source: NWS Daily Summary

Daily Weather History Graph

Daily Weather History Graph

Search for Another Location

Airport or City:

Trip Planner

Search our weather history database for the weather conditions in past years. The results will help you decide how hot, cold, wet, or windy it might be!

Date:

Astronomy

Sep. 13, 2014 Rise Set
Actual Time 6:48 AM CDT 7:19 PM CDT
Civil Twilight 6:22 AM CDT 7:45 PM CDT
Nautical Twilight 5:51 AM CDT 8:16 PM CDT
Astronomical Twilight 5:19 AM CDT 8:48 PM CDT
Moon 10:30 PM CDT (9/13) 11:50 AM CDT (9/13)
Length of Visible Light 13h 23m
Length of Day
12h 30m
Waning Gibbous, 74% of the Moon is Illuminated
Sep 13
Waning Gibbous
Sep 15
Last Quarter
Sep 24
New
Oct 1
First Quarter
Oct 8
Full

Hourly Weather History & Observations

Time (CDT) Temp. Windchill Dew Point Humidity Pressure Visibility Wind Dir Wind Speed Gust Speed Precip Events Conditions
12:04 AM 50.0 °F - 50.0 °F 100% 30.34 in 10.0 mi North 12.7 mph - N/A   Overcast
12:18 AM 48.2 °F - 48.2 °F 100% 30.34 in 10.0 mi North 9.2 mph - N/A   Light Drizzle
12:45 AM 48.2 °F - 48.2 °F 100% 30.33 in 10.0 mi NNW 13.8 mph - N/A   Overcast
12:56 AM 48.2 °F - 48.2 °F 100% 30.33 in 10.0 mi North 11.5 mph - N/A   Light Drizzle
12:58 AM 48.2 °F - 48.2 °F 100% 30.35 in 10.0 mi North 11.5 mph - 0.00 in   Light Drizzle
1:06 AM 48.2 °F - 48.2 °F 100% 30.33 in 10.0 mi North 10.4 mph - N/A   Overcast
1:58 AM 47.7 °F - 47.7 °F 100% 30.35 in 10.0 mi North 9.2 mph - 0.00 in   Overcast
2:08 AM 48.2 °F - 48.2 °F 100% 30.33 in 10.0 mi North 11.5 mph - N/A   Overcast
2:58 AM 46.6 °F - 46.2 °F 99% 30.35 in 10.0 mi NNW 10.4 mph - N/A   Overcast
3:33 AM 44.6 °F 39.7 °F 44.6 °F 100% 30.34 in 10.0 mi North 9.2 mph - N/A   Overcast
3:58 AM 45.1 °F 40.8 °F 45.0 °F 99% 30.36 in 10.0 mi North 8.1 mph - N/A   Overcast
4:13 AM 44.6 °F 39.7 °F 44.6 °F 100% 30.34 in 10.0 mi North 9.2 mph - N/A   Overcast
4:43 AM 44.6 °F 40.2 °F 44.6 °F 100% 30.34 in 10.0 mi North 8.1 mph - N/A   Overcast
4:58 AM 45.0 °F 41.2 °F 44.8 °F 99% 30.37 in 10.0 mi North 6.9 mph - N/A   Overcast
5:48 AM 44.6 °F 40.7 °F 44.6 °F 100% 30.36 in 10.0 mi North 6.9 mph - N/A   Mostly Cloudy
5:53 AM 44.6 °F 40.7 °F 44.6 °F 100% 30.36 in 10.0 mi North 6.9 mph - N/A   Mostly Cloudy
5:58 AM 44.6 °F 41.4 °F 44.4 °F 99% 30.37 in 10.0 mi North 5.8 mph - N/A   Mostly Cloudy
6:58 AM 43.5 °F 40.1 °F 43.3 °F 99% 30.38 in 10.0 mi North 5.8 mph - N/A   Overcast
7:58 AM 44.2 °F 41.0 °F 43.7 °F 98% 30.39 in 10.0 mi NNE 5.8 mph - N/A   Overcast
8:28 AM 46.4 °F 42.9 °F 44.6 °F 93% 30.37 in 10.0 mi NNE 6.9 mph - N/A   Scattered Clouds
8:58 AM 46.0 °F 43.1 °F 42.3 °F 87% 30.40 in 10.0 mi NNE 5.8 mph - N/A   Mostly Cloudy
9:13 AM 46.4 °F 42.4 °F 42.8 °F 87% 30.38 in 10.0 mi NNE 8.1 mph - N/A   Mostly Cloudy
9:23 AM 48.2 °F - 42.8 °F 82% 30.38 in 10.0 mi NNE 5.8 mph - N/A   Scattered Clouds
9:58 AM 50.5 °F - 43.2 °F 76% 30.41 in 10.0 mi NE 10.4 mph - N/A   Clear
10:58 AM 53.4 °F - 44.2 °F 71% 30.40 in 10.0 mi ENE 9.2 mph - N/A   Clear
11:58 AM 56.5 °F - 44.2 °F 64% 30.38 in 10.0 mi NNE 8.1 mph - N/A   Clear
12:58 PM 59.0 °F - 43.2 °F 56% 30.37 in 10.0 mi NE 5.8 mph - N/A   Clear
1:58 PM 60.8 °F - 43.7 °F 53% 30.35 in 10.0 mi Variable 3.5 mph - N/A   Clear
2:58 PM 61.7 °F - 43.3 °F 51% 30.33 in 10.0 mi North 5.8 mph - N/A   Clear
3:58 PM 63.1 °F - 43.9 °F 49% 30.31 in 10.0 mi NE 6.9 mph - N/A   Clear
4:58 PM 63.5 °F - 44.1 °F 49% 30.29 in 10.0 mi Variable 2.3 mph - N/A   Clear
5:58 PM 62.8 °F - 44.2 °F 51% 30.28 in 10.0 mi NNE 6.9 mph - N/A   Clear
6:58 PM 58.6 °F - 46.2 °F 63% 30.27 in 10.0 mi NNE 3.5 mph - N/A   Clear
7:58 PM 56.3 °F - 46.0 °F 68% 30.28 in 10.0 mi NNE 3.5 mph - N/A   Clear
8:58 PM 55.2 °F - 44.8 °F 68% 30.28 in 10.0 mi NE 5.8 mph - N/A   Clear
9:58 PM 53.1 °F - 45.3 °F 75% 30.28 in 10.0 mi ENE 4.6 mph - N/A   Clear
10:58 PM 51.1 °F - 44.4 °F 78% 30.29 in 10.0 mi East 4.6 mph - N/A   Clear
11:58 PM 50.0 °F - 44.4 °F 81% 30.30 in 10.0 mi East 5.8 mph - N/A   Clear